Dalaman, Turkey

11:51 AM +03 on January 23, 2018 (GMT +0300)
Dalaman

Weather History for LTBS - November, 2012

Change the Weather History Date:

Thursday, November 29, 2012

  Actual Average Record
Temperature  
Mean Temperature 62 °F -  
Max Temperature 68 °F 60 °F 73 °F (2010)
Min Temperature 57 °F 44 °F 35 °F (2011)
Degree Days  
Heating Degree Days 2    
Growing Degree Days 12 (Base 50)    
Moisture  
Dew Point 57 °F    
Average Humidity 78    
Maximum Humidity 94    
Minimum Humidity 61    
Precipitation  
Precipitation 0.02 in - - ()
Sea Level Pressure  
Sea Level Pressure 30.06 in    
Wind  
Wind Speed 7 mph ()    
Max Wind Speed 15 mph    
Max Gust Speed -    
Visibility 6.2 miles    
Events Rain    
Averages and records for this station are not official NWS values.
T = Trace of Precipitation, MM = Missing Value Source: Averaged Metar Reports

Daily Weather History Graph

Daily Weather History Graph

Search for Another Location

Airport or City:

Trip Planner

Search our weather history database for the weather conditions in past years. The results will help you decide how hot, cold, wet, or windy it might be!

Date:

Astronomy

Nov. 29, 2012 Rise Set
Actual Time 6:57 AM EET 4:49 PM EET
Civil Twilight 6:28 AM EET 5:17 PM EET
Nautical Twilight 5:56 AM EET 5:49 PM EET
Astronomical Twilight 5:25 AM EET 6:20 PM EET
Moon 5:36 PM EET (11/29) 7:27 AM EET (11/29)
Length of Visible Light 10h 49m
Length of Day
9h 52m
Waxing Gibbous, 99% of the Moon is Illuminated
Nov 29
Waxing Gibbous
Dec 6
Last Quarter
Dec 13
New
Dec 20
First Quarter
Dec 28
Full

Hourly Weather History & Observations

Time (EET) Temp. Dew Point Humidity Pressure Visibility Wind Dir Wind Speed Gust Speed Precip Events Conditions
12:20 AM 59.0 °F 57.2 °F 94% 30.12 in 6.2 mi Variable 4.6 mph - N/A   Mostly Cloudy
12:50 AM 59.0 °F 57.2 °F 94% 30.09 in 6.2 mi NNE 6.9 mph - N/A   Mostly Cloudy
1:20 AM 59.0 °F 57.2 °F 94% 30.09 in 6.2 mi NNE 5.8 mph - N/A   Mostly Cloudy
1:50 AM 59.0 °F 57.2 °F 94% 30.09 in 6.2 mi North 4.6 mph - N/A   Mostly Cloudy
2:00 AM 60 °F 57 °F 87% 30.12 in 6 mi North 4.6 mph - -   Partly Cloudy
2:20 AM 59.0 °F 57.2 °F 94% 30.09 in 6.2 mi NNE 3.5 mph - N/A   Mostly Cloudy
2:50 AM 59.0 °F 57.2 °F 94% 30.09 in 6.2 mi Variable 2.3 mph - N/A   Mostly Cloudy
3:20 AM 59.0 °F 57.2 °F 94% 30.09 in 6.2 mi Variable 2.3 mph - N/A   Mostly Cloudy
3:50 AM 64.4 °F 57.2 °F 77% 30.09 in 6.2 mi South 5.8 mph - N/A   Mostly Cloudy
4:20 AM 59.0 °F 55.4 °F 88% 30.09 in 6.2 mi NE 3.5 mph - N/A   Mostly Cloudy
4:50 AM 59.0 °F 57.2 °F 94% 30.06 in 6.2 mi NE 3.5 mph - N/A   Mostly Cloudy
5:20 AM 60.8 °F 57.2 °F 88% 30.06 in 6.2 mi Variable 2.3 mph - N/A   Mostly Cloudy
5:50 AM 64.4 °F 55.4 °F 73% 30.06 in 6.2 mi SSE 4.6 mph - N/A   Mostly Cloudy
6:20 AM 59.0 °F 57.2 °F 94% 30.06 in 6.2 mi NNE 4.6 mph - N/A   Mostly Cloudy
6:50 AM 59.0 °F 57.2 °F 94% 30.06 in 6.2 mi NNE 3.5 mph - N/A   Mostly Cloudy
7:20 AM 59.0 °F 57.2 °F 94% 30.09 in 6.2 mi Variable 2.3 mph - N/A   Mostly Cloudy
7:50 AM 59.0 °F 57.2 °F 94% 30.09 in 6.2 mi NNE 5.8 mph - N/A   Mostly Cloudy
8:00 AM 59 °F 57 °F 92% 30.10 in 6 mi NNE 5.8 mph - -   Partly Cloudy
8:20 AM 60.8 °F 57.2 °F 88% 30.09 in 6.2 mi Variable 2.3 mph - N/A   Mostly Cloudy
8:50 AM 62.6 °F 59.0 °F 88% 30.09 in 6.2 mi Variable 2.3 mph - N/A   Mostly Cloudy
9:20 AM 66.2 °F 57.2 °F 73% 30.09 in 6.2 mi SSE 5.8 mph - N/A   Mostly Cloudy
9:50 AM 66.2 °F 57.2 °F 73% 30.09 in 6.2 mi SSE 8.1 mph - N/A   Mostly Cloudy
10:20 AM 66.2 °F 57.2 °F 73% 30.09 in 6.2 mi South 11.5 mph - N/A   Mostly Cloudy
10:50 AM 66.2 °F 57.2 °F 73% 30.09 in 6.2 mi SSE 10.4 mph - N/A   Mostly Cloudy
11:20 AM 66.2 °F 57.2 °F 73% 30.09 in 6.2 mi SSE 10.4 mph - N/A   Mostly Cloudy
11:50 AM 68.0 °F 59.0 °F 73% 30.06 in 6.2 mi South 13.8 mph - N/A   Mostly Cloudy
12:20 PM 68.0 °F 57.2 °F 68% 30.06 in 6.2 mi South 13.8 mph - N/A   Mostly Cloudy
12:50 PM 68.0 °F 59.0 °F 73% 30.04 in 6.2 mi South 13.8 mph - N/A   Mostly Cloudy
1:20 PM 68.0 °F 57.2 °F 68% 30.04 in 6.2 mi SSE 12.7 mph - N/A   Mostly Cloudy
1:50 PM 68.0 °F 57.2 °F 68% 30.04 in 6.2 mi SSE 13.8 mph - N/A   Mostly Cloudy
2:00 PM 67 °F 57 °F 61% 30.05 in 6 mi SSE 13.8 mph - -   Partly Cloudy
2:20 PM 68.0 °F 57.2 °F 68% 30.04 in 6.2 mi SSE 12.7 mph - N/A   Mostly Cloudy
2:50 PM 68.0 °F 57.2 °F 68% 30.04 in 6.2 mi SSE 9.2 mph - N/A   Mostly Cloudy
3:20 PM 68.0 °F 57.2 °F 68% 30.01 in 6.2 mi SSE 11.5 mph - N/A   Mostly Cloudy
3:50 PM 68.0 °F 57.2 °F 68% 30.01 in 6.2 mi SE 15.0 mph - N/A   Mostly Cloudy
4:20 PM 68.0 °F 55.4 °F 64% 30.01 in 6.2 mi SE 11.5 mph - N/A   Mostly Cloudy
4:50 PM 68.0 °F 55.4 °F 64% 30.01 in 6.2 mi SSE 11.5 mph - N/A   Mostly Cloudy
5:20 PM 68.0 °F 55.4 °F 64% 30.01 in 6.2 mi SSE 12.7 mph - N/A   Mostly Cloudy
5:50 PM 68.0 °F 55.4 °F 64% 30.01 in 6.2 mi SSE 10.4 mph - N/A   Mostly Cloudy
6:20 PM 68.0 °F 57.2 °F 68% 30.04 in 6.2 mi SSE 12.7 mph - N/A   Mostly Cloudy
6:50 PM 68.0 °F 57.2 °F 68% 30.04 in 6.2 mi SSE 13.8 mph - N/A   Mostly Cloudy
7:20 PM 66.2 °F 59.0 °F 78% 30.04 in 6.2 mi SSE 13.8 mph - N/A Rain Light Rain Showers
7:50 PM 66.2 °F 59.0 °F 78% 30.04 in 6.2 mi SSE 15.0 mph - N/A Rain Light Rain Showers
8:00 PM 67 °F 58 °F 66% 30.04 in 6 mi SSE 15.0 mph - - Rain Light Rain Showers
8:20 PM 66.2 °F 57.2 °F 73% 30.04 in 6.2 mi SSE 13.8 mph - N/A   Mostly Cloudy
8:50 PM 66.2 °F 57.2 °F 73% 30.04 in 6.2 mi SSE 11.5 mph - N/A   Mostly Cloudy
9:20 PM 66.2 °F 57.2 °F 73% 30.04 in 6.2 mi SSE 11.5 mph - N/A   Mostly Cloudy
9:50 PM 66.2 °F 57.2 °F 73% 30.04 in 6.2 mi SSE 15.0 mph - N/A   Mostly Cloudy
10:20 PM 68.0 °F 57.2 °F 68% 30.04 in 6.2 mi SSE 13.8 mph - N/A   Mostly Cloudy
10:50 PM 68.0 °F 57.2 °F 68% 30.04 in 6.2 mi SE 13.8 mph - N/A   Mostly Cloudy
11:20 PM 68.0 °F 55.4 °F 64% 30.04 in 6.2 mi SSE 12.7 mph - N/A   Mostly Cloudy
11:50 PM 66.2 °F 55.4 °F 68% 30.04 in 6.2 mi SE 5.8 mph - N/A   Mostly Cloudy